EW3196 Weather Reports


Display with metric or nautical units.
time (UTC)temp
F
wind
direction
speed
MPH
gust
MPH
rain 1hr
in
rain 24hr
in
rain mn
in
humidity
%
barometer
mb
20260505010046 75 219 4.0 10.0 0.00 0.00 0.00 59 1001.2
20260505004553 76 360 5.0 9.0 0.00 0.00 0.00 58 1001.1
20260505003045 77 216 4.0 10.0 0.00 0.00 0.00 56 1000.9
20260505001550 78 182 4.0 13.0 0.00 0.00 0.00 55 1001.0
20260505000100 78 360 6.0 14.0 0.00 0.00 0.00 54 1000.9
20260504234544 78 234 5.0 12.0 0.00 0.00 0.00 55 1000.9
20260504233043 79 257 2.0 12.0 0.00 0.00 0.00 55 1000.9
20260504231542 79 360 6.0 17.0 0.00 0.00 0.00 54 1000.8
20260504230100 79 269 5.0 16.0 0.00 0.00 0.00 54 1000.9
20260504224542 80 360 8.0 22.0 0.00 0.00 0.00 52 1000.8
20260504223040 80 244 7.0 15.0 0.00 0.00 0.00 52 1000.9
20260504221550 80 267 8.0 18.0 0.00 0.00 0.00 52 1000.9
20260504220040 81 253 6.0 18.0 0.00 0.00 0.00 52 1000.8
20260504214539 81 360 10.0 21.0 0.00 0.00 0.00 51 1000.9
20260504213043 81 235 4.0 21.0 0.00 0.00 0.00 51 1001.1
20260504211541 82 233 8.0 21.0 0.00 0.00 0.00 50 1001.1
20260504210036 82 204 5.0 22.0 0.00 0.00 0.00 51 1001.1
20260504204537 81 297 5.0 30.0 0.00 0.00 0.00 52 1001.2
20260504203031 80 215 8.0 17.0 0.00 0.00 0.00 53 1001.4
20260504201530 80 211 9.0 22.0 0.00 0.00 0.00 52 1001.6
20260504200029 80 242 8.0 26.0 0.00 0.00 0.00 53 1001.6
20260504194526 80 198 3.0 19.0 0.00 0.00 0.00 53 1001.9
20260504193025 79 255 7.0 26.0 0.00 0.00 0.00 49 1002.2
20260504191525 80 173 6.0 13.0 0.00 0.00 0.00 51 1002.2
20260504190022 78 240 7.0 18.0 0.00 0.00 0.00 51 1002.4
20260504184520 80 260 8.0 15.0 0.00 0.00 0.00 54 1002.6
20260504183015 78 360 5.0 13.0 0.00 0.00 0.00 61 1002.7
20260504181511 77 192 4.0 13.0 0.00 0.00 0.00 60 1002.9
20260504180010 75 224 6.0 14.0 0.00 0.00 0.00 60 1003.0
20260504174505 73 211 2.0 6.0 0.00 0.00 0.00 65 1003.4
20260504173005 70 229 2.0 6.0 0.00 0.00 0.00 67 1003.6
20260504171502 70 236 0.0 3.0 0.00 0.00 0.00 67 1003.5
20260504160104 73 261 3.0 11.0 0.00 0.00 0.00 60 1004.1
20260504081549 56 177 2.0 4.0 0.00 0.00 0.00 89 1006.7
20260504050022 58 184 1.0 2.0 0.00 0.00 0.00 89 1007.7
20260504044527 59 184 0.0 3.0 0.00 0.00 0.00 88 1007.8
20260504043021 59 169 0.0 1.0 0.00 0.00 0.00 87 1008.0
20260504041519 59 169 0.0 2.0 0.00 0.00 0.00 87 1008.3
20260504040019 59 190 0.0 1.0 0.00 0.00 0.00 87 1008.4
20260504034518 59 190 0.0 0.0 0.00 0.00 0.00 86 1008.6
20260504033018 60 190 0.0 0.0 0.00 0.00 0.00 85 1008.6
20260504031520 61 190 0.0 2.0 0.00 0.00 0.00 85 1008.7
20260504030020 62 190 0.0 1.0 0.00 0.00 0.00 82 1008.6
20260504024517 63 190 0.0 1.0 0.00 0.00 0.00 80 1008.5
20260504023016 64 190 0.0 1.0 0.00 0.00 0.00 78 1008.3
20260504021517 65 234 0.0 3.0 0.00 0.00 0.00 73 1008.5
20260504020016 65 230 0.0 0.0 0.00 0.00 0.00 66 1008.1
20260504014515 67 230 0.0 0.0 0.00 0.00 0.00 64 1008.0
20260504013018 68 230 0.0 1.0 0.00 0.00 0.00 60 1008.1